Location: Agadir Mansour Mhndou
(31.2424°N, 8.7730°W)
Time: 06:26:49
(UTC+00:00)

ARGOS - Pass Details

Date: 16 October 2021
Orbit: 820 x 835 km, 98.4° (Epoch: 28 November)

Event Time Altitude Azimuth Distance (km) Brightness Sun altitude
Rises 19:05:19 0° 163° (SSE) 3,343 6.2 -14.3°
Reaches altitude 10° 19:07:39 10° 162° (SSE) 2,416 5.4 -14.8°
Maximum altitude 19:13:01 80° 76° (ENE) 843 3.1 -15.9°
Drops below altitude 10° 19:18:25 10° 350° (N) 2,439 5.7 -17.1°
Sets 19:20:47 0° 350° (N) 3,377 6.5 -17.6°
